timestamp,wind_dir_avg,wind_spd_avg,wind_spd_max_dir,wind_spd_gust,battery_voltage,lat,long
2023-07-25 00:04:00+00:00,207.0,8.84,212.0,9.67,12.89,47.59359,-54.27349
2023-07-25 00:14:00+00:00,207.0,7.6,214.0,8.46,12.41,47.59359,-54.27349
2023-07-25 00:24:00+00:00,207.0,8.52,211.0,9.58,12.41,47.59359,-54.27349
2023-07-25 00:34:00+00:00,205.0,8.48,214.0,9.33,12.41,47.59359,-54.27349
2023-07-25 00:44:00+00:00,213.0,7.15,216.0,8.16,12.41,47.59359,-54.27349
2023-07-25 00:54:00+00:00,214.0,7.01,219.0,7.76,12.41,47.59359,-54.27349
2023-07-25 01:04:00+00:00,218.0,5.79,220.0,6.17,12.41,47.59359,-54.27349
2023-07-25 01:14:00+00:00,229.0,5.69,230.0,6.03,12.41,47.59359,-54.27349
2023-07-25 01:24:00+00:00,237.0,4.92,238.0,5.26,12.41,47.59359,-54.27349
2023-07-25 01:34:00+00:00,228.0,5.28,228.0,5.66,12.41,47.59359,-54.27349
2023-07-25 01:44:00+00:00,243.0,4.59,249.0,5.49,12.41,47.59359,-54.27349
2023-07-25 01:54:00+00:00,237.0,4.75,241.0,5.55,12.41,47.59359,-54.27349
2023-07-25 02:04:00+00:00,252.0,3.94,251.0,4.59,12.41,47.59359,-54.27349
2023-07-25 02:14:01+00:00,231.0,4.7,232.0,5.27,12.41,47.59359,-54.27349
2023-07-25 02:24:01+00:00,232.0,3.81,230.0,4.43,12.41,47.59359,-54.27349
2023-07-25 02:34:01+00:00,246.0,3.12,251.0,3.59,12.41,47.59359,-54.27349
2023-07-25 02:44:01+00:00,233.0,3.85,231.0,4.23,12.41,47.59359,-54.27349
2023-07-25 02:54:01+00:00,228.0,3.21,228.0,3.81,12.41,47.59359,-54.27349
2023-07-25 03:04:01+00:00,240.0,3.23,242.0,3.93,12.41,47.59359,-54.27349
2023-07-25 03:14:00+00:00,228.0,2.32,243.0,3.69,12.41,47.59359,-54.27349
2023-07-25 03:24:00+00:00,198.0,4.39,214.0,5.32,12.41,47.59359,-54.27349
2023-07-25 03:34:00+00:00,199.0,4.07,209.0,4.4,12.41,47.59359,-54.27349
2023-07-25 03:44:00+00:00,191.0,3.23,191.0,3.48,12.41,47.59359,-54.27349
2023-07-25 03:54:00+00:00,211.0,3.4,222.0,4.11,12.41,47.59359,-54.27349
2023-07-25 04:04:00+00:00,220.0,3.69,231.0,4.59,12.41,47.59359,-54.27349
2023-07-25 04:14:00+00:00,208.0,2.9,217.0,3.42,12.41,47.59359,-54.27349
2023-07-25 04:24:00+00:00,177.0,1.77,187.0,2.13,12.41,47.59359,-54.27349
2023-07-25 04:34:00+00:00,212.0,2.37,220.0,2.67,12.41,47.59359,-54.27349
2023-07-25 04:44:00+00:00,201.0,2.38,199.0,2.6,12.41,47.59359,-54.27349
2023-07-25 04:54:00+00:00,196.0,3.2,199.0,3.41,12.41,47.59359,-54.27349
2023-07-25 05:04:00+00:00,194.0,2.55,196.0,2.91,12.41,47.59359,-54.27349
2023-07-25 05:14:00+00:00,206.0,2.34,212.0,2.73,12.41,47.59359,-54.27349
2023-07-25 05:24:00+00:00,196.0,2.36,204.0,2.89,12.41,47.59359,-54.27349
2023-07-25 05:34:00+00:00,201.0,3.18,199.0,3.41,12.41,47.59359,-54.27349
2023-07-25 05:44:00+00:00,212.0,3.05,214.0,3.34,12.41,47.59359,-54.27349
2023-07-25 05:54:00+00:00,213.0,4.04,221.0,4.54,12.41,47.59359,-54.27349
2023-07-25 06:04:00+00:00,207.0,3.2,215.0,3.64,12.41,47.59359,-54.27349
2023-07-25 06:14:00+00:00,216.0,1.85,218.0,2.24,12.33,47.59359,-54.27349
2023-07-25 06:24:00+00:00,202.0,1.72,206.0,2.09,12.33,47.59359,-54.27349
2023-07-25 06:34:00+00:00,213.0,2.85,227.0,3.47,12.33,47.59359,-54.27349
2023-07-25 06:44:00+00:00,204.0,3.37,205.0,3.9,12.33,47.59359,-54.27349
2023-07-25 06:54:00+00:00,199.0,2.12,197.0,2.53,12.33,47.59359,-54.27349
2023-07-25 07:04:00+00:00,209.0,3.07,211.0,3.41,12.33,47.59359,-54.27349
2023-07-25 07:14:01+00:00,209.0,2.13,211.0,2.6,12.33,47.59359,-54.27349
2023-07-25 07:24:01+00:00,215.0,3.57,229.0,4.41,12.33,47.59359,-54.27349
2023-07-25 07:34:01+00:00,195.0,2.57,197.0,3.2,12.33,47.59359,-54.27349
2023-07-25 07:44:01+00:00,201.0,2.45,198.0,2.66,12.33,47.59359,-54.27349
2023-07-25 07:54:01+00:00,206.0,2.88,209.0,3.07,12.33,47.59359,-54.27349
2023-07-25 08:04:01+00:00,206.0,3.55,207.0,3.75,12.33,47.59359,-54.27349
2023-07-25 08:14:00+00:00,189.0,2.77,190.0,3.01,12.33,47.59359,-54.27349
2023-07-25 08:24:00+00:00,201.0,2.53,192.0,3.14,12.33,47.59359,-54.27349
2023-07-25 08:34:00+00:00,204.0,3.87,209.0,4.24,12.33,47.59359,-54.27349
2023-07-25 08:44:00+00:00,207.0,3.77,220.0,4.38,12.33,47.59359,-54.27349
2023-07-25 08:54:00+00:00,193.0,3.25,194.0,3.6,12.33,47.59359,-54.27349
2023-07-25 09:04:00+00:00,217.0,1.91,214.0,2.22,12.33,47.59359,-54.27349
2023-07-25 09:14:00+00:00,202.0,4.97,202.0,5.51,12.49,47.59359,-54.27349
2023-07-25 09:24:00+00:00,210.0,5.08,212.0,5.52,12.49,47.59359,-54.27349
2023-07-25 09:34:00+00:00,213.0,4.58,216.0,4.83,12.49,47.59359,-54.27349
2023-07-25 09:44:00+00:00,211.0,5.16,212.0,5.51,12.49,47.59359,-54.27349
2023-07-25 09:54:00+00:00,208.0,6.37,209.0,7.02,12.49,47.59359,-54.27349
2023-07-25 10:04:00+00:00,214.0,7.46,217.0,8.07,12.49,47.59359,-54.27349
2023-07-25 10:14:00+00:00,212.0,4.86,213.0,5.34,13.05,47.59359,-54.27349
2023-07-25 10:24:00+00:00,207.0,4.86,210.0,5.32,13.05,47.59359,-54.27349
2023-07-25 10:34:00+00:00,211.0,4.72,211.0,5.06,13.05,47.59359,-54.27349
2023-07-25 10:44:00+00:00,216.0,5.34,218.0,5.68,13.05,47.59359,-54.27349
2023-07-25 10:54:00+00:00,211.0,5.1,210.0,5.5,13.05,47.59359,-54.27349
2023-07-25 11:04:00+00:00,219.0,4.46,223.0,5.3,13.05,47.59359,-54.27349
2023-07-25 11:14:01+00:00,226.0,4.33,225.0,4.71,13.68,47.59359,-54.27349
2023-07-25 11:24:01+00:00,211.0,4.29,211.0,4.66,13.68,47.59359,-54.27349
2023-07-25 11:34:01+00:00,224.0,4.08,228.0,4.76,13.68,47.59359,-54.27349
2023-07-25 11:44:01+00:00,214.0,5.28,216.0,5.68,13.68,47.59359,-54.27349
2023-07-25 11:54:01+00:00,211.0,4.55,211.0,5.02,13.68,47.59359,-54.27349
2023-07-25 12:04:01+00:00,216.0,6.0,218.0,6.52,13.68,47.59359,-54.27349
2023-07-25 12:14:00+00:00,213.0,5.66,216.0,6.58,13.6,47.59359,-54.27349
2023-07-25 12:24:00+00:00,217.0,6.69,216.0,7.41,13.6,47.59359,-54.27349
2023-07-25 12:34:00+00:00,213.0,5.19,217.0,5.65,13.6,47.59359,-54.27349
2023-07-25 12:44:00+00:00,210.0,6.85,209.0,7.5,13.6,47.59359,-54.27349
2023-07-25 12:54:00+00:00,212.0,6.1,221.0,6.98,13.6,47.59359,-54.27349
2023-07-25 13:04:00+00:00,206.0,6.52,200.0,7.36,13.6,47.59359,-54.27349
2023-07-25 13:14:00+00:00,201.0,5.54,201.0,6.1,14.08,47.59359,-54.27349
2023-07-25 13:24:00+00:00,198.0,6.56,199.0,7.32,14.08,47.59359,-54.27349
2023-07-25 13:34:00+00:00,194.0,6.85,195.0,7.36,14.08,47.59359,-54.27349
2023-07-25 13:44:00+00:00,191.0,6.7,192.0,7.34,14.08,47.59359,-54.27349
2023-07-25 13:54:00+00:00,198.0,7.49,197.0,8.31,14.08,47.59359,-54.27349
2023-07-25 14:04:00+00:00,193.0,6.97,191.0,8.6,14.08,47.59359,-54.27349
2023-07-25 14:14:01+00:00,197.0,7.54,197.0,8.23,14.08,47.59359,-54.27349
2023-07-25 14:24:01+00:00,198.0,8.9,198.0,9.46,14.08,47.59359,-54.27349
2023-07-25 14:34:01+00:00,198.0,8.71,198.0,10.0,14.08,47.59359,-54.27349
2023-07-25 14:44:01+00:00,200.0,8.25,203.0,9.08,14.08,47.59359,-54.27349
2023-07-25 14:54:01+00:00,202.0,7.85,202.0,8.46,14.08,47.59359,-54.27349
2023-07-25 15:04:01+00:00,207.0,8.21,208.0,8.86,14.08,47.59359,-54.27349
2023-07-25 15:14:00+00:00,205.0,8.06,208.0,8.76,14.32,47.59359,-54.27349
2023-07-25 15:24:00+00:00,200.0,8.35,203.0,9.36,14.32,47.59359,-54.27349
2023-07-25 15:34:00+00:00,199.0,7.98,203.0,8.97,14.32,47.59359,-54.27349
2023-07-25 15:44:00+00:00,207.0,8.59,212.0,9.74,14.32,47.59359,-54.27349
2023-07-25 15:54:00+00:00,207.0,8.6,207.0,9.41,14.32,47.59359,-54.27349
2023-07-25 16:04:00+00:00,209.0,9.26,208.0,10.26,14.32,47.59359,-54.27349
2023-07-25 16:14:00+00:00,211.0,10.06,210.0,11.52,14.32,47.59359,-54.27349
2023-07-25 16:24:00+00:00,210.0,10.18,212.0,11.51,14.32,47.59359,-54.27349
2023-07-25 16:34:00+00:00,209.0,10.43,210.0,11.44,14.32,47.59359,-54.27349
2023-07-25 16:44:00+00:00,203.0,9.75,210.0,10.82,14.32,47.59359,-54.27349
2023-07-25 16:54:00+00:00,204.0,9.53,204.0,10.8,14.32,47.59359,-54.27349
2023-07-25 17:04:00+00:00,202.0,9.32,201.0,10.19,14.32,47.59359,-54.27349
2023-07-25 17:14:00+00:00,205.0,9.51,206.0,10.76,14.24,47.59359,-54.27349
2023-07-25 17:24:00+00:00,208.0,9.17,209.0,10.1,14.24,47.59359,-54.27349
2023-07-25 17:34:00+00:00,204.0,8.54,211.0,9.66,14.24,47.59359,-54.27349
2023-07-25 17:44:00+00:00,205.0,9.01,206.0,10.09,14.24,47.59359,-54.27349
2023-07-25 17:54:00+00:00,209.0,9.72,213.0,10.55,14.24,47.59359,-54.27349
2023-07-25 18:04:00+00:00,209.0,9.97,208.0,11.5,14.24,47.59359,-54.27349
2023-07-25 18:14:01+00:00,210.0,10.53,213.0,12.13,13.84,47.59359,-54.27349
2023-07-25 18:24:01+00:00,210.0,11.2,209.0,12.43,13.84,47.59359,-54.27349
2023-07-25 18:34:01+00:00,210.0,10.21,209.0,11.7,13.84,47.59359,-54.27349
2023-07-25 18:44:01+00:00,212.0,10.72,210.0,11.7,13.84,47.59359,-54.27349
2023-07-25 18:54:01+00:00,211.0,10.35,211.0,11.97,13.84,47.59359,-54.27349
2023-07-25 19:04:01+00:00,210.0,10.43,213.0,11.75,13.84,47.59359,-54.27349
2023-07-25 19:14:00+00:00,209.0,10.11,211.0,11.31,13.76,47.59359,-54.27349
2023-07-25 19:24:00+00:00,207.0,9.31,205.0,10.53,13.76,47.59359,-54.27349
2023-07-25 19:34:00+00:00,208.0,8.92,208.0,10.13,13.76,47.59359,-54.27349
2023-07-25 19:44:00+00:00,206.0,8.74,212.0,9.98,13.76,47.59359,-54.27349
2023-07-25 19:54:00+00:00,208.0,9.6,209.0,11.29,13.76,47.59359,-54.27349
2023-07-25 20:04:00+00:00,205.0,9.16,208.0,10.51,13.76,47.59359,-54.27349
2023-07-25 20:14:00+00:00,207.0,9.53,210.0,10.51,13.6,47.59359,-54.27349
2023-07-25 20:24:00+00:00,202.0,8.46,199.0,9.3,13.6,47.59359,-54.27349
2023-07-25 20:34:00+00:00,204.0,8.31,205.0,9.54,13.6,47.59359,-54.27349
2023-07-25 20:44:00+00:00,212.0,9.57,213.0,10.61,13.6,47.59359,-54.27349
2023-07-25 20:54:00+00:00,213.0,9.84,215.0,10.92,13.6,47.59359,-54.27349
2023-07-25 21:04:00+00:00,214.0,9.25,213.0,10.29,13.6,47.59359,-54.27349
2023-07-25 21:14:00+00:00,215.0,8.35,217.0,9.09,13.53,47.59359,-54.27349
2023-07-25 21:24:00+00:00,216.0,7.02,215.0,8.04,13.53,47.59359,-54.27349
2023-07-25 21:34:00+00:00,211.0,6.95,213.0,7.84,13.53,47.59359,-54.27349
2023-07-25 21:44:00+00:00,212.0,6.95,210.0,7.74,13.53,47.59359,-54.27349
2023-07-25 21:54:00+00:00,221.0,6.42,217.0,7.08,13.53,47.59359,-54.27349
2023-07-25 22:04:00+00:00,216.0,5.83,212.0,6.52,13.53,47.59359,-54.27349
2023-07-25 22:14:00+00:00,227.0,5.42,230.0,6.05,13.37,47.59359,-54.27349
2023-07-25 22:24:00+00:00,228.0,5.98,228.0,6.61,13.37,47.59359,-54.27349
2023-07-25 22:34:00+00:00,228.0,5.66,227.0,6.36,13.37,47.59359,-54.27349
2023-07-25 22:44:00+00:00,222.0,6.29,220.0,7.06,13.37,47.59359,-54.27349
2023-07-25 22:54:00+00:00,238.0,5.36,235.0,6.3,13.37,47.59359,-54.27349
2023-07-25 23:04:00+00:00,232.0,4.34,230.0,4.93,13.37,47.59359,-54.27349
2023-07-25 23:14:00+00:00,225.0,4.75,228.0,5.07,12.89,47.59359,-54.27349
2023-07-25 23:24:00+00:00,235.0,3.69,231.0,4.13,12.89,47.59359,-54.27349
2023-07-25 23:34:00+00:00,190.0,2.23,185.0,2.78,12.89,47.59359,-54.27349
2023-07-25 23:44:00+00:00,154.0,1.99,177.0,2.82,12.89,47.59359,-54.27349
2023-07-25 23:54:00+00:00,214.0,2.19,217.0,2.85,12.89,47.59359,-54.27349
